Change the Weather History Date:

Thursday, November 24, 2011

  Actual Average Record
Temperature  
Mean Temperature 58 °F -  
Max Temperature 71 °F 70 °F 84 °F (1995)
Min Temperature 46 °F 45 °F 35 °F (1971)
Degree Days  
Heating Degree Days 6    
Growing Degree Days 8 (Base 50)    
Moisture  
Dew Point 40 °F    
Average Humidity 49    
Maximum Humidity 66    
Minimum Humidity 38    
Precipitation  
Precipitation 0.00 in - - ()
Sea Level Pressure  
Sea Level Pressure 29.93 in    
Wind  
Wind Speed 4 mph (WSW)    
Max Wind Speed 10 mph    
Max Gust Speed -    
Visibility 10 miles    
Events      
Averages and records for this station are not official NWS values.
T = Trace of Precipitation, MM = Missing Value Source: NWS Daily Summary

Daily Weather History Graph

Daily Weather History Graph

Search for Another Location

Airport or City:

Trip Planner

Search our weather history database for the weather conditions in past years. The results will help you decide how hot, cold, wet, or windy it might be!

Date:

Astronomy

Nov. 24, 2011 Rise Set
Actual Time 6:18 AM PST 4:32 PM PST
Civil Twilight 5:51 AM PST 4:58 PM PST
Nautical Twilight 5:21 AM PST 5:29 PM PST
Astronomical Twilight 4:51 AM PST 5:59 PM PST
Moon 5:40 AM PST (11/24) 4:08 PM PST (11/24)
Length of Visible Light 11h 06m
Length of Day
10h 13m
Waning Crescent, 0% of the Moon is Illuminated
Nov 24
Waning Crescent
Nov 24
New
Dec 2
First Quarter
Dec 10
Full
Dec 17
Last Quarter

Hourly Weather History & Observations

Time (PST) Temp. Dew Point Humidity Pressure Visibility Wind Dir Wind Speed Gust Speed Precip Events Conditions
12:52 AM 48.9 °F 35.1 °F 59% 29.91 in 10.0 mi South 3.5 mph - N/A   Clear
1:52 AM 51.1 °F 37.0 °F 59% 29.91 in 10.0 mi Calm Calm - N/A   Clear
2:52 AM 46.9 °F 35.1 °F 63% 29.91 in 10.0 mi Calm Calm - N/A   Clear
3:52 AM 46.9 °F 36.0 °F 66% 29.93 in 10.0 mi NNE 4.6 mph - N/A   Clear
6:52 AM 48.0 °F 37.0 °F 66% 29.95 in 10.0 mi NW 4.6 mph - N/A   Clear
7:52 AM 54.0 °F 39.9 °F 59% 29.97 in 10.0 mi NE 3.5 mph - N/A   Clear
8:52 AM 59.0 °F 41.0 °F 51% 29.97 in 10.0 mi Calm Calm - N/A   Clear
9:52 AM 61.0 °F 42.1 °F 50% 29.97 in 10.0 mi Calm Calm - N/A   Clear
10:52 AM 66.0 °F 41.0 °F 40% 29.95 in 10.0 mi Calm Calm - N/A   Clear
11:52 AM 69.1 °F 43.0 °F 39% 29.92 in 10.0 mi East 5.8 mph - N/A   Clear
12:52 PM 71.1 °F 46.0 °F 41% 29.91 in 10.0 mi South 9.2 mph - N/A   Partly Cloudy
1:52 PM 70.0 °F 46.0 °F 42% 29.88 in 10.0 mi South 10.4 mph - N/A   Mostly Cloudy
2:52 PM 69.1 °F 44.1 °F 40% 29.88 in 10.0 mi WSW 6.9 mph - N/A   Overcast
3:52 PM 69.1 °F 43.0 °F 39% 29.88 in 10.0 mi Calm Calm - N/A   Mostly Cloudy
4:52 PM 69.1 °F 43.0 °F 39% 29.89 in 10.0 mi WSW 8.1 mph - N/A   Overcast
5:52 PM 66.9 °F 42.1 °F 40% 29.91 in 10.0 mi WSW 4.6 mph - N/A   Mostly Cloudy
6:52 PM 64.9 °F 39.9 °F 40% 29.93 in 10.0 mi WSW 6.9 mph - N/A   Overcast
7:52 PM 63.0 °F 37.0 °F 38% 29.94 in 10.0 mi West 9.2 mph - N/A   Overcast
8:52 PM 62.1 °F 37.0 °F 39% 29.95 in 10.0 mi West 9.2 mph - N/A   Partly Cloudy
9:52 PM 57.9 °F 42.1 °F 56% 29.97 in 10.0 mi Calm Calm - N/A   Clear
10:52 PM 55.9 °F 37.9 °F 51% 29.99 in 10.0 mi West 6.9 mph - N/A   Clear
11:52 PM 54.0 °F 37.9 °F 55% 29.99 in 10.0 mi WSW 5.8 mph - N/A   Clear